[Iaude] MPEC N51: 2017 FV241 [a=47.47,e=0.34,i=8.5,H=9.0]
    mpec at cfa.harvard.edu 
    mpec at cfa.harvard.edu
       
    Fri Jul  5 10:54:57 EDT 2024
    
    
  
M.P.E.C. 2024-N51                                  Issued 2024 July 5, 14:53 UT
     The Minor Planet Electronic Circulars contain information on unusual
         minor planets, routine data on comets and natural satellites,
         and occasional editorial announcements.  They are published
    on behalf of Division F of the International Astronomical Union by the
          Minor Planet Center, Smithsonian Astrophysical Observatory,
                          Cambridge, MA 02138, U.S.A.
			  
             Prepared using the Tamkin Foundation Computer Network
                              MPC at CFA.HARVARD.EDU
            URL https://www.minorplanetcenter.net/    ISSN 1523-6714
                                   2017 FV241                                   
Observations:
     K17FO1V 1C2015 01 17.35469409 59 35.99 +03 21 52.2                WEN051T09
     K17FO1V 1C2015 01 17.37301609 59 35.92 +03 21 52.5                WEN051T09
     K17FO1V 1C2016 03 04.42618510 01 17.03 +03 06 29.8                WEN051T09
     K17FO1V 1C2016 03 04.45550210 01 16.89 +03 06 30.7                WEN051T09
     K17FO1V 1C2016 03 09.29190710 00 55.31 +03 08 45.1                WEN051T09
     K17FO1V 1C2016 03 09.30209510 00 55.26 +03 08 45.3                WEN051T09
     K17FO1V 1C2016 03 09.31221610 00 55.21 +03 08 45.6                WEN051T09
     K17FO1V 1C2017 03 04.31447110 06 36.06 +02 33 10.4                WEN051T09
     K17FO1V 1C2017 03 04.33648310 06 35.94 +02 33 11.2                WEN051T09
     K17FO1V 4C2017 03 22.38749 10 05 18.55 +02 41 43.3          25.1 z1EN051T09
     K17FO1V 4C2017 03 22.41317 10 05 18.43 +02 41 44.0          24.4 z1EN051T09
     K17FO1V 4C2017 03 22.43886 10 05 18.35 +02 41 44.8          24.6 z1EN051T09
     K17FO1V 4C2017 03 22.46449 10 05 18.24 +02 41 45.7          24.9 z1EN051T09
     K17FO1V*4C2017 03 25.24382 10 05 07.70 +02 43 03.7          25.4 r1EN051T09
     K17FO1V 4C2017 03 25.25752 10 05 07.61 +02 43 03.7          24.9 r1EN051T09
     K17FO1V 4C2017 03 25.27122 10 05 07.54 +02 43 04.1          25.0 r1EN051T09
     K17FO1V 4C2017 03 25.28496 10 05 07.50 +02 43 04.6          25.2 r1EN051T09
     K17FO1V 1C2019 04 05.33729310 15 15.52 +01 40 15.8                WEN051T09
     K17FO1V 1C2019 04 05.37165910 15 15.40 +01 40 16.9                WEN051T09
Observer details:
T09 Subaru Telescope, Maunakea.  Observers , H. Aihara, Y. AlSayyad, M. Ando,
    R. Armstrong, J. Bosch, E. Egami, H. Furusawa, J. Furusawa, S. Harasawa,
    Y. Harikane, B.-C. Hsieh, H. Ikeda, K. Ito, I. Iwata, T. Kodama, M. Koike,
    M. Kokubo, Y. Komiyama, X. Li, Y. Liang, Y.-T. Lin, R. H. Lupton, N. B.
    Lust, L. A. MacArthur, K. Mawatari, S. Mineo, H. Miyatake, S. Miyazaki, S.
    More, T. Morishima, H. Murayama, K. Nakajima, F. Nakata, A. J. Nishizawa,
    M. Oguri, N. Okabe, Y. Okura, Y. Ono, K. Osato, M. Ouchi, Y.-C. Pan, A. A.
    Plazas Malagon, P. A. Price, S. L. Reed, E. S. Rykoff, T. Shibuya, M.
    Simunovic, M. A. Strauss, K. Sugimori, Y. Suto, N. Suzuki, M. Takada, Y.
    Takagi, T. Takata, S. Takita, M. Tanaka, S. Tang, D. S. Taranu, T. Terai,
    Y. Toba, E. L. Turner, H. Uchiyama, B. Vijarnwannaluk, C. Z. Waters, Y.
    Yamada, N. Yamamoto, T. Yamashita.  Measurers S. Deen, T. G. Fisher.
    8.3-m Subaru Telescope + CCD, 8.2-m f/2.0 reflector + CCD(HSC).
Orbital elements:
2017 FV241                                                                      
Epoch 2024 Mar. 31.0 TT = JDT 2460400.5                 Alexandersen            
M 320.27872              (2000.0)            P               Q                  
n   0.00301325     Peri.  342.17417     -0.52818147     +0.83693187             
a  47.4729659      Node   255.72248     -0.75993251     -0.54126373             
e   0.3406426      Incl.    8.51054     -0.37884948     -0.08110872             
P 327              H    9.06          G   0.15           U   6                  
Residuals in seconds of arc
150117 T09  0.1-  0.1-    170304 T09  0.2+  0.1-    170325 T09  0.0   0.0
150117 T09  0.1-  0.1-    170304 T09  0.1-  0.0     170325 T09  0.3-  0.0
160304 T09  0.1+  0.1+    170322 T09  0.0   0.1-    170325 T09  0.1-  0.1+
160304 T09  0.1+  0.1+    170322 T09  0.3-  0.1-    190405 T09  0.0   0.2-
160309 T09  0.1+  0.0     170322 T09  0.1+  0.0     190405 T09  0.1-  0.0
160309 T09  0.0   0.1-    170322 T09  0.1-  0.2+
160309 T09  0.1-  0.1-    170325 T09  0.5+  0.3+
Ephemeris:
2017 FV241               a,e,i = 47.47, 0.34, 9                  q = 31.3017
Date    TT    R. A. (2000) Decl.     Delta      r    Elong.  Phase     V
2024 06 05    10 42 16.0 -00 58 07  38.3673 38.3445    88.0     1.5    25.1
...
2024 06 20    10 42 48.1 -00 57 53  38.6008 38.3315    73.9     1.5    25.1
...
2024 06 28    10 43 13.3 -00 58 42  38.7191 38.3246    66.5     1.4    25.1
...
2024 07 04    10 43 35.7 -00 59 44  38.8033 38.3194    60.9     1.3    25.1
2024 07 05    10 43 39.7 -00 59 56  38.8169 38.3185    60.0     1.3    25.1
2024 07 06    10 43 43.7 -01 00 09  38.8303 38.3176    59.1     1.3    25.1
...
2024 07 12    10 44 09.7 -01 01 40  38.9078 38.3124    53.5     1.2    25.1
...
2024 07 20    10 44 48.1 -01 04 12  39.0016 38.3055    46.2     1.1    25.1
...
2024 08 04    10 46 10.0 -01 10 30  39.1432 38.2925    32.6     0.8    25.1
M. P. C. Staff               (C) Copyright 2024 MPC           M.P.E.C. 2024-N51
    
    
More information about the Iaude
mailing list